Worthington, MN

7:41 AM CST on December 10, 2019 (GMT -0600)
Worthington Municipal

Weather History for KOTG - October, 2019

Change the Weather History Date:

Thursday, October 17, 2019

  Actual Average Record
Temperature  
Mean Temperature 47 °F -  
Max Temperature 64 °F 56 °F 82 °F (1991)
Min Temperature 30 °F 36 °F 17 °F (1976)
Degree Days  
Heating Degree Days 18    
Moisture  
Dew Point 37 °F    
Average Humidity 69    
Maximum Humidity 96    
Minimum Humidity 40    
Precipitation  
Precipitation 0.00 in - - ()
Sea Level Pressure  
Sea Level Pressure 29.93 in    
Wind  
Wind Speed 8 mph (SSE)    
Max Wind Speed 15 mph    
Max Gust Speed 23 mph    
Visibility 10 miles    
Events      
Averages and records for this station are not official NWS values.
T = Trace of Precipitation, MM = Missing Value Source: NWS Daily Summary

Daily Weather History Graph

Daily Weather History Graph

Search for Another Location

Airport or City:

Astronomy

Oct. 17, 2019 Rise Set
Actual Time 7:38 AM CDT 6:35 PM CDT
Civil Twilight 7:09 AM CDT 7:04 PM CDT
Nautical Twilight 6:36 AM CDT 7:38 PM CDT
Astronomical Twilight 6:03 AM CDT 8:11 PM CDT
Moon 9:02 PM CDT (10/17) 11:17 AM CDT (10/17)
Length of Visible Light 11h 55m
Length of Day
10h 57m
Waning Gibbous, 86% of the Moon is Illuminated
Oct 17
Waning Gibbous
Oct 21
Last Quarter
Oct 27
New
Nov 4
First Quarter
Nov 12
Full

Hourly Weather History & Observations

Time (CDT) Temp. Windchill Dew Point Humidity Pressure Visibility Wind Dir Wind Speed Gust Speed Precip Events Conditions
12:56 AM 35.1 °F 30.1 °F 32.0 °F 89% 30.06 in 10.0 mi SE 5.8 mph - N/A   Clear
1:56 AM 34.0 °F 31.0 °F 32.0 °F 92% 30.05 in 10.0 mi SE 3.5 mph - N/A   Clear
2:56 AM 30.9 °F 26.2 °F 28.9 °F 92% 30.05 in 10.0 mi ESE 4.6 mph - N/A   Clear
3:56 AM 32.0 °F 28.7 °F 30.9 °F 96% 30.03 in 10.0 mi SSE 3.5 mph - N/A   Clear
4:56 AM 32.0 °F 27.5 °F 30.9 °F 96% 30.01 in 10.0 mi SSE 4.6 mph - N/A   Clear
5:56 AM 30.9 °F 26.2 °F 30.0 °F 96% 30.01 in 10.0 mi SE 4.6 mph - N/A   Clear
6:56 AM 32.0 °F 27.5 °F 30.9 °F 96% 30.01 in 10.0 mi South 4.6 mph - N/A   Clear
7:56 AM 34.0 °F 29.8 °F 32.0 °F 92% 30.00 in 10.0 mi SSE 4.6 mph - N/A   Clear
8:56 AM 39.9 °F 33.4 °F 35.1 °F 83% 30.00 in 10.0 mi SSE 10.4 mph - N/A   Clear
9:56 AM 46.0 °F 41.4 °F 37.0 °F 71% 29.99 in 10.0 mi SSE 9.2 mph - N/A   Clear
10:56 AM 52.0 °F - 37.9 °F 59% 29.98 in 10.0 mi SSE 12.7 mph 23.0 mph N/A   Clear
11:56 AM 55.9 °F - 39.0 °F 53% 29.95 in 10.0 mi South 11.5 mph - N/A   Clear
12:56 PM 59.0 °F - 39.0 °F 48% 29.92 in 10.0 mi South 13.8 mph 18.4 mph N/A   Clear
1:56 PM 62.1 °F - 39.9 °F 44% 29.90 in 10.0 mi SSE 12.7 mph - N/A   Clear
2:56 PM 64.0 °F - 39.0 °F 40% 29.88 in 10.0 mi South 15.0 mph 19.6 mph N/A   Clear
3:56 PM 64.0 °F - 39.9 °F 41% 29.85 in 10.0 mi SSE 15.0 mph 19.6 mph N/A   Clear
4:56 PM 62.1 °F - 39.9 °F 44% 29.85 in 10.0 mi SSE 9.2 mph - N/A   Clear
5:56 PM 61.0 °F - 39.9 °F 46% 29.83 in 10.0 mi SE 13.8 mph 20.7 mph N/A   Clear
6:56 PM 55.0 °F - 39.9 °F 57% 29.84 in 10.0 mi SE 10.4 mph - N/A   Clear
7:56 PM 53.1 °F - 39.9 °F 61% 29.83 in 10.0 mi SE 11.5 mph - N/A   Clear
8:56 PM 53.1 °F - 39.9 °F 61% 29.82 in 10.0 mi SSE 10.4 mph - N/A   Clear
9:56 PM 53.1 °F - 41.0 °F 64% 29.81 in 10.0 mi SSE 11.5 mph 20.7 mph N/A   Clear
10:56 PM 52.0 °F - 41.0 °F 66% 29.81 in 10.0 mi SSE 11.5 mph - N/A   Clear
11:56 PM 50.0 °F - 41.0 °F 71% 29.79 in 10.0 mi SSE 13.8 mph 20.7 mph N/A   Clear